Location: Banff
(51.1667°N, 115.5667°W)
Time: 20:47:09
(UTC+00:00)

S-56A Canister/Altair - Pass Details

Date: 19 May 2021
Orbit: 632 x 2500 km, 38.9° (Epoch: 16 June)

Event Time Altitude Azimuth Distance (km) Brightness Sun altitude
Rises 04:12:47 0° 279° (W) 6,179 13.2 -5.9°
Reaches altitude 10° 04:18:23 10° 266° (W) 5,087 12.4 -6.6°
Maximum altitude 04:27:32 20° 226° (SW) 3,950 11.2 -7.6°
Drops below altitude 10° 04:35:26 10° 185° (S) 4,289 10.9 -8.5°
Enters shadow 04:39:05 - 171° (S) 4,867 11.1 -8.8°
